Total_Precipitation_Accumulation
0.31 0.30 0.31 0.30 0.28 0.25 0.24 0.26 0.31 0.19 0.05 0.02 0.04 0.05 0.08 0.11 0.16 0.20 0.24 0.16 0.14 0.21 0.20 0.10 0.02 0.01 0.01 0.02 0.03 0.02 0.01 0.09 0.24 0.45 0.75 0.52 0.47 0.52
0.09 0.07 0.07 0.07 0.09 0.07 0.09 0.08 0.09 0.12 0.10 0.00 0.00 0.00 0.01 0.02 0.03 0.05 0.11 0.16 0.12 0.13 0.19 0.16 0.12 0.04 0.01 0.00 0.00 0.00 0.00 0.01 0.03 0.14 0.45 0.88 0.89 0.60
0.01 0.01 0.01 0.01 0.01 0.01 0.01 0.02 0.03 0.04 0.03 0.00 0.00 0.00 0.00 0.00 0.00 0.00 0.01 0.03 0.04 0.04 0.08 0.14 0.13 0.08 0.02 0.00 0.00 0.00 0.00 0.00 0.00 0.01 0.10 0.45 0.92 1.20
0.01 0.01 0.01 0.00 0.00 0.00 0.00 0.00 0.00 0.00 0.00 0.00 0.00 0.00 0.00 0.00 0.00 0.00 0.00 0.00 0.00 0.00 0.01 0.02 0.04 0.04 0.02 0.00 0.00 0.00 0.00 0.00 0.00 0.00 0.00 0.05 0.35 0.94
0.00 0.00 0.00 0.00 0.00 0.00 0.00 0.00 0.00 0.00 0.00 0.00 0.00 0.00 0.00 0.00 0.00 0.00 0.00 0.00 0.00 0.00 0.00 0.00 0.00 0.01 0.01 0.00 0.00 0.00 0.00 0.00 0.00 0.00 0.00 0.00 0.04 0.21
0.00 0.00 0.00 0.00 0.00 0.00 0.00 0.00 0.00 0.00 0.00 0.00 0.00 0.00 0.00 0.00 0.00 0.00 0.00 0.00 0.00 0.00 0.00 0.00 0.00 0.00 0.00 0.00 0.00 0.00 0.00 0.00 0.00 0.00 0.00 0.00 0.00 0.03
0.00 0.00 0.00 0.00 0.00 0.00 0.00 0.00 0.01 0.01 0.01 0.01 0.00 0.00 0.00 0.00 0.00 0.00 0.00 0.00 0.00 0.00 0.00 0.00 0.00 0.00 0.00 0.00 0.00 0.00 0.00 0.00 0.00 0.00 0.00 0.00 0.00 0.00
0.00 0.00 0.00 0.00 0.00 0.00 0.00 0.00 0.01 0.02 0.02 0.02 0.01 0.01 0.00 0.00 0.00 0.00 0.00 0.00 0.01 0.00 0.00 0.00 0.00 0.00 0.00 0.00 0.00 0.00 0.00 0.00 0.00 0.00 0.00 0.00 0.00 0.00
0.00 0.00 0.00 0.00 0.00 0.00 0.00 0.00 0.00 0.01 0.02 0.03 0.04 0.02 0.01 0.00 0.01 0.01 0.01 0.02 0.01 0.00 0.01 0.02 0.01 0.02 0.01 0.00 0.00 0.00 0.00 0.00 0.00 0.00 0.00 0.00 0.00 0.00
0.00 0.00 0.00 0.00 0.00 0.01 0.04 0.04 0.02 0.02 0.01 0.02 0.04 0.03 0.02 0.02 0.02 0.03 0.05 0.07 0.05 0.01 0.02 0.05 0.02 0.02 0.02 0.01 0.00 0.00 0.00 0.00 0.00 0.00 0.00 0.00 0.00 0.01
0.00 0.01 0.01 0.01 0.01 0.04 0.11 0.11 0.06 0.02 0.01 0.02 0.03 0.04 0.05 0.04 0.05 0.10 0.13 0.15 0.11 0.02 0.01 0.03 0.03 0.03 0.02 0.01 0.01 0.00 0.00 0.00 0.00 0.00 0.00 0.00 0.00 0.00
0.02 0.01 0.01 0.03 0.11 0.14 0.21 0.19 0.15 0.03 0.02 0.03 0.02 0.02 0.02 0.03 0.02 0.08 0.11 0.14 0.09 0.07 0.01 0.03 0.03 0.03 0.07 0.02 0.02 0.02 0.02 0.01 0.00 0.00 0.00 0.00 0.00 0.00
0.04 0.02 0.05 0.21 0.18 0.11 0.08 0.13 0.12 0.08 0.06 0.06 0.04 0.03 0.02 0.03 0.04 0.06 0.10 0.14 0.13 0.10 0.01 0.07 0.10 0.04 0.08 0.05 0.03 0.04 0.04 0.03 0.02 0.01 0.00 0.00 0.00 0.00
0.08 0.14 0.21 0.12 0.08 0.05 0.07 0.12 0.08 0.06 0.09 0.11 0.12 0.09 0.10 0.09 0.08 0.09 0.11 0.15 0.11 0.07 0.02 0.14 0.23 0.05 0.08 0.09 0.05 0.04 0.05 0.05 0.04 0.02 0.01 0.01 0.00 0.00
0.18 0.20 0.13 0.11 0.05 0.05 0.11 0.12 0.08 0.14 0.17 0.15 0.12 0.10 0.11 0.11 0.13 0.12 0.08 0.08 0.10 0.07 0.04 0.13 0.23 0.11 0.14 0.15 0.07 0.05 0.08 0.09 0.06 0.05 0.03 0.03 0.03 0.01
0.10 0.13 0.15 0.07 0.08 0.13 0.13 0.11 0.13 0.15 0.13 0.14 0.11 0.09 0.09 0.09 0.14 0.16 0.21 0.17 0.18 0.08 0.03 0.05 0.08 0.13 0.19 0.09 0.07 0.05 0.04 0.07 0.07 0.03 0.02 0.03 0.07 0.10
0.12 0.15 0.10 0.09 0.08 0.08 0.07 0.06 0.07 0.06 0.08 0.10 0.11 0.09 0.08 0.08 0.11 0.13 0.13 0.14 0.16 0.09 0.09 0.06 0.04 0.10 0.14 0.17 0.20 0.06 0.06 0.08 0.07 0.07 0.07 0.03 0.02 0.03
0.13 0.12 0.13 0.14 0.12 0.10 0.08 0.06 0.05 0.07 0.06 0.08 0.09 0.07 0.07 0.08 0.09 0.07 0.07 0.09 0.10 0.11 0.13 0.16 0.18 0.24 0.21 0.15 0.13 0.07 0.05 0.07 0.06 0.08 0.08 0.08 0.03 0.03
0.11 0.12 0.14 0.13 0.10 0.05 0.05 0.06 0.07 0.09 0.06 0.07 0.09 0.09 0.08 0.07 0.08 0.06 0.07 0.08 0.12 0.17 0.18 0.16 0.18 0.20 0.20 0.19 0.18 0.09 0.10 0.08 0.09 0.08 0.09 0.09 0.06 0.04
0.10 0.12 0.12 0.10 0.06 0.04 0.03 0.03 0.04 0.05 0.03 0.04 0.07 0.08 0.07 0.07 0.07 0.05 0.06 0.08 0.09 0.11 0.07 0.03 0.05 0.06 0.11 0.13 0.18 0.09 0.09 0.09 0.10 0.10 0.09 0.09 0.06 0.04
0.09 0.09 0.09 0.07 0.05 0.04 0.04 0.03 0.04 0.04 0.03 0.03 0.04 0.05 0.06 0.07 0.05 0.04 0.03 0.03 0.03 0.03 0.03 0.01 0.01 0.01 0.01 0.02 0.08 0.10 0.04 0.06 0.05 0.07 0.09 0.10 0.09 0.06
0.06 0.05 0.05 0.05 0.04 0.03 0.03 0.02 0.01 0.02 0.02 0.02 0.02 0.04 0.05 0.05 0.06 0.05 0.02 0.03 0.02 0.02 0.01 0.01 0.01 0.01 0.01 0.02 0.05 0.08 0.05 0.05 0.05 0.04 0.04 0.05 0.06 0.11
0.02 0.03 0.03 0.02 0.02 0.01 0.01 0.01 0.01 0.01 0.02 0.02 0.02 0.02 0.03 0.03 0.03 0.04 0.02 0.02 0.02 0.01 0.01 0.02 0.01 0.01 0.02 0.01 0.01 0.06 0.04 0.04 0.05 0.06 0.04 0.02 0.01 0.01